Regional Weather Roundup
Issued by NWS Jackson, KY

Home | Current Version | Previous Version | Text Only | Print | Product List | Glossary On
Versions: 1 2 3 4 5 6 7 8 9 10 11 12 13 14 15 16 17 18 19 20 21 22 23 24 25 26 27 28 29 30 31 32 33 34 35 36 37 38 39 40 41 42 43 44 45 46 47 48 49 50
000
ASUS43 KJKL 281419
RWRJKL

EAST KENTUCKY HOURLY WEATHER ROUNDUP
NATIONAL WEATHER SERVICE JACKSON KY
900 AM EST FRI NOV 28 2014

NOTE: "FAIR" INDICATES FEW OR NO CLOUDS BELOW 12,000 FEET WITH
NO SIGNIFICANT WEATHER AND/OR OBSTRUCTIONS TO VISIBILITY.

* THESE REPORTS ARE NOT UNDER NWS QUALITY CONTROL AND MAY NOT
  REPORT WEATHER SUCH AS PRECIPITATION AND FOG.

KYZ079-080-083-085-087-088-110-112-115-119-120-281500
...EASTERN KENTUCKY...

CITY           SKY/WX    TMP DP  RH WIND       PRES   REMARKS
JACKSON        CLOUDY    27  15  61 VRB3      30.40R
LONDON         PTSUNNY   27  16  63 W3        30.42R
SOMERSET*      CLOUDY    27  19  74 CALM      30.45S
MONTICELLO*    CLOUDY    28  19  69 CALM      30.46R
HARLAN APT*    CLOUDY    27  18  69 NW3       30.39S
BLACK MTN*       N/A     18  18 100 NW1         N/A
PIKEVILLE APT* CLOUDY    27  16  63 W6        30.38R WCI  20
BIG SANDY*     CLOUDY    28  18  64 W3        30.39S
MOREHEAD APT*  MOSUNNY   27  21  80 CALM      30.42F
ASHLAND*       PTSUNNY   30  16  55 W10       30.41S WCI  21
$$

KYZ035-036-041-042-044-050-067-078-099-281500
...CENTRAL KENTUCKY...

CITY           SKY/WX    TMP DP  RH WIND       PRES   REMARKS
MT STERLING*   CLOUDY    28  21  74 W5        30.43S WCI  23
FLEMING/MASON* CLOUDY    27  21  80 SW5       30.42S WCI  21
DANVILLE*      CLOUDY    27  21  80 CALM      30.42F
RICHMOND*      CLOUDY    27  19  74 W3        30.42S
LEXINGTON      CLOUDY    26  20  77 S6        30.41S WCI  19
FRANKFORT      CLOUDY    27  18  69 S6        30.39F WCI  20
$$

KYZ091>093-OHZ055-061-077-WVZ005-015-034-035-042-281500
...SOUTHERN OHIO/WEST VIRGINIA...

CITY           SKY/WX    TMP DP  RH WIND       PRES   REMARKS
COVINGTON      CLOUDY    27  18  69 S5        30.37F WCI  22
COLUMBUS       PTSUNNY   25  17  72 W6        30.38S WCI  18
DAYTON         CLOUDY    25  16  68 CALM      30.37S
WILMINGTON     CLOUDY    24  15  68 CALM      30.37F
HUNTINGTON     CLOUDY    28  20  71 VRB3      30.41R
CHARLESTON     CLOUDY    28  16  60 W5        30.39R WCI  23
PINEVILLE*     CLOUDY    28  22  78 MISG      30.40R
BECKLEY        LGT SNOW  22  17  81 N8        30.28R WCI  12
BLUEFIELD      CLOUDY    23  15  71 NW8       30.28R WCI  14
$$

VAZ002-007-008-TNZ017-027-036-066-071-281500
...SOUTHWEST VIRGINIA/EAST TENNESSEE...

CITY           SKY/WX    TMP DP  RH WIND       PRES   REMARKS
WISE*          CLOUDY    25  18  74 SW6       30.32R WCI  18
JONESVILLE*    CLOUDY    28  19  69 W5        30.42R WCI  23
ABINGDON*      MOSUNNY   28  17  63 NW6       30.34R WCI  22
BRISTOL        PTSUNNY   29  21  72 W7        30.38R WCI  22
KNOXVILLE      PTSUNNY   29  22  75 CALM      30.42F
OAK RIDGE      MOSUNNY   30  21  69 CALM      30.45R
CROSSVILLE     SUNNY     25  19  78 CALM      30.39R
NASHVILLE      PTSUNNY   28  23  81 CALM      30.43F
$$

...KEY TO REMARKS...
VSB - VISIBILITY IN MILES
WCI - WIND CHILL INDEX
HX  - HEAT INDEX

$$


USA.gov is the U.S. government's official web portal to all federal, state and local government web resources and services.